Weather History for Klamath Falls, OR

Change the Weather History Date:

Friday, August 2, 2013

  Actual Average Record
Temperature  
Mean Temperature 56 °F 67 °F  
Max Temperature 78 °F 86 °F 94 °F (1977)
Min Temperature 34 °F 49 °F 34 °F (2013)
Degree Days  
Heating Degree Days 9 1  
Month to date heating degree days 14 2  
Since 1 June heating degree days 193 269  
Since 1 July heating degree days 15 52  
Cooling Degree Days 0 3  
Month to date cooling degree days 0 6  
Year to date cooling degree days 218 100  
Since 1 June cooling degree days 218 99  
Growing Degree Days 5 (Base 50)    
Moisture  
Dew Point 38 °F    
Average Humidity 70    
Maximum Humidity 100    
Minimum Humidity 14    
Precipitation  
Precipitation 0.00 in 0.01 in 0.10 in (2003)
Month to date precipitation 0.00 0.02  
Year to date precipitation 4.55 9.33  
Sea Level Pressure  
Sea Level Pressure 30.07 in    
Wind  
Wind Speed 4 mph (NW)    
Max Wind Speed 17 mph    
Max Gust Speed 26 mph    
Visibility 4 miles    
Events Fog    
T = Trace of Precipitation, MM = Missing Value Source: NWS Daily Summary

Daily Weather History Graph

Daily Weather History Graph

Search for Another Location

Airport:

Trip Planner

Search our weather history database for the weather conditions in past years. The results will help you decide how hot, cold, wet, or windy it might be!

Date:

Astronomy

Aug. 02, 2013 Rise Set
Actual Time 6:01 AM PDT 8:24 PM PDT
Civil Twilight 5:29 AM PDT 8:55 PM PDT
Nautical Twilight 4:50 AM PDT 9:34 PM PDT
Astronomical Twilight 4:07 AM PDT 10:17 PM PDT
Moon 2:25 AM PDT (8/2) 5:26 PM PDT (8/2)
Length of Visible Light 15h 25m
Length of Day
14h 22m
Waning Crescent, 15% of the Moon is Illuminated
Aug 2
Waning Crescent
Aug 6
New
Aug 14
First Quarter
Aug 20
Full
Aug 28
Last Quarter

Hourly Weather History & Observations

Time (PDT) Temp. Windchill Dew Point Humidity Pressure Visibility Wind Dir Wind Speed Gust Speed Precip Events Conditions
12:53 AM 45.0 °F - 42.1 °F 90% 30.05 in 6.0 mi Calm Calm - N/A   Clear
1:53 AM 42.1 °F - 39.0 °F 89% 30.05 in 5.0 mi Calm Calm - N/A   Clear
2:45 AM 42.8 °F - 41.0 °F 93% 30.13 in 1.5 mi Calm Calm - N/A   Partly Cloudy
2:47 AM 42.8 °F - 42.8 °F 100% 30.13 in 0.8 mi Calm Calm - N/A   Mist
2:53 AM 41.0 °F 39.0 °F 41.0 °F 100% 30.06 in 0.5 mi SE 3.5 mph - N/A Fog Fog
3:00 AM 39.2 °F - 39.2 °F 100% 30.13 in 0.2 mi Calm Calm - N/A Fog Fog
3:11 AM 39.2 °F 35.9 °F 39.2 °F 100% 30.13 in 1.0 mi SSW 4.6 mph - N/A   Mist
3:13 AM 39.2 °F 35.9 °F 39.2 °F 100% 30.13 in 3.0 mi South 4.6 mph - N/A   Scattered Clouds
3:53 AM 37.9 °F - 36.0 °F 93% 30.06 in 5.0 mi Calm Calm - N/A   Clear
4:25 AM 39.2 °F - 37.4 °F 93% 30.13 in 1.8 mi Calm Calm - N/A   Partly Cloudy
4:27 AM 39.2 °F - 37.4 °F 93% 30.13 in 0.8 mi Calm Calm - N/A   Mist
4:36 AM 37.4 °F - 37.4 °F 100% 30.13 in 0.2 mi Calm Calm - N/A Fog Fog
4:53 AM 36.0 °F - 35.1 °F 97% 30.08 in 0.2 mi Calm Calm - N/A Fog Fog
5:02 AM 35.6 °F - 35.6 °F 100% 30.14 in 0.2 mi Calm Calm - N/A Fog Fog
5:06 AM 37.4 °F - 35.6 °F 93% 30.13 in 0.5 mi Calm Calm - N/A Fog Fog
5:13 AM 35.6 °F - 35.6 °F 100% 30.13 in 0.2 mi Calm Calm - N/A Fog Fog
5:33 AM 37.4 °F - 35.6 °F 93% 30.13 in 0.5 mi Calm Calm - N/A Fog Fog
5:41 AM 35.6 °F - 35.6 °F 100% 30.13 in 1.5 mi Calm Calm - N/A   Scattered Clouds
5:49 AM 33.8 °F - 33.8 °F 100% 30.13 in 2.0 mi Calm Calm - N/A   Partly Cloudy
5:53 AM 35.1 °F - 34.0 °F 96% 30.08 in 2.0 mi Calm Calm - N/A   Clear
6:13 AM 37.4 °F - 35.6 °F 93% 30.13 in 3.0 mi Calm Calm - N/A   Clear
6:53 AM 42.1 °F - 37.9 °F 85% 30.07 in 6.0 mi Calm Calm - N/A   Clear
7:53 AM 48.0 °F - 42.1 °F 80% 30.08 in 5.0 mi Calm Calm - N/A   Haze
8:53 AM 52.0 °F - 44.1 °F 74% 30.09 in 5.0 mi Calm Calm - N/A   Haze
9:53 AM 57.9 °F - 43.0 °F 58% 30.08 in 4.0 mi ESE 3.5 mph - N/A   Haze
10:53 AM 63.0 °F - 37.9 °F 40% 30.06 in 6.0 mi Calm Calm - N/A   Haze
11:53 AM 66.9 °F - 37.9 °F 34% 30.05 in 7.0 mi Calm Calm - N/A   Smoke
12:53 PM 72.0 °F - 26.1 °F 18% 30.03 in 10.0 mi Variable 3.5 mph - N/A   Smoke
1:53 PM 73.0 °F - 30.9 °F 21% 30.02 in 10.0 mi Variable 4.6 mph - N/A   Smoke
2:53 PM 75.0 °F - 23.0 °F 14% 30.01 in 10.0 mi NNW 6.9 mph - N/A   Smoke
3:53 PM 75.0 °F - 24.1 °F 15% 29.99 in 7.0 mi Calm Calm - N/A   Smoke
4:53 PM 77.0 °F - 30.0 °F 18% 29.99 in 10.0 mi North 4.6 mph - N/A   Smoke
5:53 PM 75.9 °F - 35.1 °F 23% 29.99 in 10.0 mi NNW 10.4 mph - N/A   Smoke
6:53 PM 73.9 °F - 37.0 °F 26% 29.98 in 10.0 mi NNW 13.8 mph - N/A   Smoke
7:53 PM 71.1 °F - 39.9 °F 32% 29.97 in 7.0 mi NNW 16.1 mph - N/A   Smoke
8:41 PM 68.0 °F - 42.8 °F 40% 30.07 in 2.5 mi NNW 13.8 mph - N/A   Haze
8:48 PM 68.0 °F - 44.6 °F 43% 30.08 in 4.0 mi NNW 12.7 mph - N/A   Haze
8:53 PM 66.9 °F - 43.0 °F 42% 29.99 in 4.0 mi NNW 11.5 mph - N/A   Haze
9:53 PM 60.1 °F - 43.0 °F 53% 30.01 in 4.0 mi WNW 6.9 mph - N/A   Haze
10:53 PM 61.0 °F - 45.0 °F 56% 30.01 in 4.0 mi WNW 5.8 mph - N/A   Haze
11:53 PM 57.9 °F - 46.0 °F 65% 30.01 in 5.0 mi NW 5.8 mph - N/A   Haze